This demonstration page uses our WeatherBlox Daily Observations layout. Learn more.

Left ArrowRight Arrow

Hourly Observations for October 8, 2019

Temp ( °F °C ) Dew Point ( °F °C ) Humidity (%) Winds ( mph kmh ) Pressure ( in mb ) Visibility ( mi km ) Precip ( " mm )
12:53 am 00:53 Clear 60 15.6 36 2.2 41 41 E 6 9 30.07 1018 10 16 0.00 0.00
1:53 am 01:53 Clear 58 14.4 37 2.8 46 46 E 7 11 30.05 1018 10 16 0.00 0.00
2:53 am 02:53 Clear 56 13.3 37 2.8 49 49 E 5 7 30.05 1018 10 16 0.00 0.00
3:53 am 03:53 Clear 56 13.3 37 2.8 49 49 SE 6 9 30.03 1017 10 16 0.00 0.00
4:53 am 04:53 Clear 55 12.8 37 2.8 51 51 E 6 9 30.01 1016 10 16 0.00 0.00
5:53 am 05:53 Clear 54 12.2 37 2.8 53 53 E 6 9 30.01 1016 10 16 0.00 0.00
6:53 am 06:53 Clear 58 14.4 36 2.2 44 44 ESE 10 17 29.99 1016 10 16 0.00 0.00
7:53 am 07:53 Sunny 59 15 36 2.2 42 42 ESE 12 19 30.00 1016 10 16 0.00 0.00
8:53 am 08:53 Partly Cloudy 61 16.1 37 2.8 41 41 SE 17 28 29.99 1016 10 16 0.00 0.00
9:53 am 09:53 Mostly Cloudy 66 18.9 39 3.9 37 37 SE 14 22 30.00 1016 10 16 0.00 0.00
10:53 am 10:53 Mostly Sunny 71 21.7 42 5.6 35 35 S 10 17 30.00 1016 10 16 0.00 0.00
11:53 am 11:53 Sunny 75 23.9 46 7.8 36 36 S 13 20 29.98 1015 10 16 0.00 0.00
12:53 pm 12:53 Sunny 77 25 49 9.4 37 37 S 9 15 29.94 1014 10 16 0.00 0.00
1:53 pm 13:53 Sunny 82 27.8 52 11.1 35 35 SSE 8 13 29.90 1012 10 16 0.00 0.00
2:53 pm 14:53 Sunny 85 29.4 52 11.1 32 32 S 9 15 29.85 1011 10 16 0.00 0.00
3:53 pm 15:53 Sunny 86 30 52 11.1 31 31 S 6 9 29.82 1010 10 16 0.00 0.00
4:53 pm 16:53 Mostly Sunny 89 31.7 50 10 26 26 S 15 24 29.79 1009 10 16 0.00 0.00
5:53 pm 17:53 Sunny 90 32.2 49 9.4 24 24 SSW 10 17 29.76 1008 10 16 0.00 0.00
6:53 pm 18:53 Sunny 88 31.1 49 9.4 26 26 SSE 14 22 29.75 1007 10 16 0.00 0.00
7:53 pm 19:53 Clear 85 29.4 49 9.4 29 29 SE 10 17 29.75 1008 10 16 0.00 0.00
8:53 pm 20:53 Mostly Clear 81 27.2 51 10.6 35 35 SE 17 28 29.77 1008 10 16 0.00 0.00
9:53 pm 21:53 Clear 79 26.1 51 10.6 38 38 SSE 20 31 29.78 1009 10 16 0.00 0.00
10:45 pm 22:45 Mostly Cloudy 76 24.4 56 13.3 50 50 WSW 21 33 29.82 1010 8 13 0.00 0.00
10:53 pm 22:53 Mostly Cloudy with Light Rain 74 23.3 57 13.9 56 56 WSW 16 26 29.85 1011 7 11 0.00 0.00
11:53 pm 23:53 Mostly Cloudy 68 20 60 15.6 76 76 N 6 9 29.80 1009 10 16 0.00 0.00

Powered by AerisWeather